OneWeb SL0205

operational
NORAD ID: 48226 Int'l Des: 2021-031 Owner: ONEWEBN Country: UK Constellation: oneweb
LEOCIRCULARPOLARONEWEB_TYPE

OneWeb SL0205について

説明を読み込み中...

リアルタイム位置

3D地球を読み込み中...

次回通過

高度履歴

Altitude vs Time

uPlot chart will show altitude changes over time

軌道要素

1 48226U 21031S 25257.51525591 -.00000035 00000-0 -12815-3 0 9993
2 48226 87.9079 344.5813 0002037 105.3542 254.7813 13.14504166212055
Epoch: Sep 14, 2025 • Age: 22 hours

現在のステータス

高度 1218.1 km
速度 7.25 km/s
衛星直下点 87.45°N, 46.28°W
打ち上げ日 Apr 25, 2021
運用期間 4.3 years
タイプ internet

技術仕様

分類 Payload
質量 148.00 kg
乾燥質量 140.00 kg
総質量 148.00 kg
長さ 1.30 m
直径 1.00 m
スパン 5.00 m
形状 Trapezoid+2 pan
製造者 ONEWUS
バスタイプ ARROW
フェーズステータス In Orbit
所有者/国 ONEWEBN/UK

大規模コンステレーション

Loading constellations...